Regional Weather Roundup
Issued by NWS Jackson, KY

Home | Current Version | Previous Version | Graphics & Text | Print | Product List | Glossary On
Versions: 1 2 3 4 5 6 7 8 9 10 11 12 13 14 15 16 17 18 19 20 21 22 23 24 25 26 27 28 29 30 31 32 33 34 35 36 37 38 39 40 41 42 43 44 45 46 47 48 49 50
000
ASUS43 KJKL 201610
RWRJKL

EAST KENTUCKY HOURLY WEATHER ROUNDUP
NATIONAL WEATHER SERVICE JACKSON KY
1100 AM EST MON FEB 20 2017

NOTE: "FAIR" INDICATES FEW OR NO CLOUDS BELOW 12,000 FEET WITH
NO SIGNIFICANT WEATHER AND/OR OBSTRUCTIONS TO VISIBILITY.

* THESE REPORTS ARE NOT UNDER NWS QUALITY CONTROL AND MAY NOT
  REPORT WEATHER SUCH AS PRECIPITATION AND FOG.

KYZ079-080-083-085-087-088-110-112-115-119-120-201700
...EASTERN KENTUCKY...

CITY           SKY/WX    TMP DP  RH WIND       PRES   REMARKS
JACKSON        SUNNY     59  45  59 VRB3      30.24S
LONDON         SUNNY     59  46  62 CALM      30.23S
SOMERSET*      CLOUDY    59  46  63 CALM      30.22F
MONTICELLO*    SUNNY     63  49  60 SE5       30.22F
WILLIAMSBURG*  SUNNY     57  48  72 SE5       30.22F
MIDDLESBORO*   CLOUDY    43  43 100 CALM      30.26S FOG
HARLAN APT*    SUNNY     46  46 100 CALM      30.24F
PIKE CO APT*     N/A     55  45  69 CALM      30.24S
BIG SANDY APT* CLOUDY    58  47  65 CALM      30.24S
MOREHEAD APT*  MOSUNNY   57  48  72 SE8       30.25F
ASHLAND*       CLOUDY    43  43 100 CALM      30.26S VSB 1/4
$$

KYZ035-036-041-042-044-050-067-078-099-201700
...CENTRAL KENTUCKY...

CITY           SKY/WX    TMP DP  RH WIND       PRES   REMARKS
MT STERLING*   CLOUDY    54  46  76 SE5       30.24F
FLEMING/MASON* MOSUNNY   50  50 100 E3        30.25S
DANVILLE*      CLOUDY    59  50  72 S5        30.21F
LEXINGTON      CLOUDY    60  48  64 SE6       30.21F
FRANKFORT      MOSUNNY   51  45  79 E3        30.20F
LOUISVILLE     CLOUDY    51  46  83 W3        30.21R HAZE
LEBANON*         N/A     63  50  63 E3        30.20S
GLASGOW*       MOSUNNY   62  50  66 SE3       30.19S
BOWLING GREEN  PTSUNNY   57  51  80 CALM      30.18F
$$

KYZ091>093-OHZ055-061-077-WVZ005-015-034-035-042-201700
...SOUTHERN OHIO/WEST VIRGINIA...

CITY           SKY/WX    TMP DP  RH WIND       PRES   REMARKS
COVINGTON      PTSUNNY   51  48  89 SE7       30.22S
COLUMBUS       FOG       44  42  93 SE5       30.27F VSB 1/8
DAYTON         FOG       45  45 100 SE5       30.25S VSB 1/8
WILMINGTON     CLOUDY    53  48  83 SE10      30.24F HAZE
HUNTINGTON     FOG       44  43  96 N3        30.26S VSB 1/8
CHARLESTON     FOG       43  42  97 CALM      30.26F VSB 1/4
PINEVILLE*     CLOUDY    53  44  74 MISG      30.31F
BECKLEY        CLOUDY    54  44  69 CALM      30.26F
BLUEFIELD      CLOUDY    55  36  48 N5        30.26F
LOGAN CO APT*    N/A     54  46  76 CALM      30.24F
$$

VAZ002-007-008-TNZ017-027-036-066-071-201700
...SOUTHWEST VIRGINIA/EAST TENNESSEE...

CITY           SKY/WX    TMP DP  RH WIND       PRES   REMARKS
WISE*          SUNNY     59  37  44 CALM      30.25F
JONESVILLE*      N/A     59  45  58 E5        30.26S
ABINGDON*      SUNNY     58  47  66 E9        30.25S
BRISTOL        MOSUNNY   54  45  71 S3        30.24F
MORRISTOWN*    SUNNY     57  46  67 VRB5      30.23S
SEVIERVILLE*   SUNNY     55  45  67 CALM      30.22F
KNOXVILLE      PTSUNNY   56  45  66 E3        30.22F
LAFOLLETTE*    SUNNY     57  46  67 CALM      30.26F
OAK RIDGE      CLOUDY    59  45  59 E3        30.24F
CROSSVILLE     MOSUNNY   59  45  59 SE7       30.23S
NASHVILLE      CLOUDY    63  48  58 CALM      30.17F
$$

...KEY TO REMARKS...
VSB - VISIBILITY IN MILES
WCI - WIND CHILL INDEX
HX  - HEAT INDEX

$$



USA.gov is the U.S. government's official web portal to all federal, state and local government web resources and services.